EA3BIN-13 Weather Reports


time (UTC)temp
F
wind
direction
speed
knots
gust
knots
rain 1hr
in
rain 24hr
in
rain mn
in
humidity
%
barometer
mb
20260502210920 60 0.0 0.0 0.00 0.00 0.00 10 1020.1
20260502205925 60 0.0 0.0 0.00 0.00 0.00 10 1020.0
20260502204920 60 0.0 0.0 0.00 0.00 0.00 10 1020.2
20260502203920 60 0.0 0.0 0.00 0.00 0.00 10 1020.3
20260502202921 60 0.0 0.0 0.00 0.00 0.00 10 1020.1
20260502201920 60 0.0 0.0 0.00 0.00 0.00 10 1020.1
20260502200920 60 0.0 0.0 0.00 0.00 0.00 10 1020.1
20260502195920 60 0.0 0.0 0.00 0.00 0.00 10 1019.8
20260502194925 60 0.0 0.0 0.00 0.00 0.00 10 1019.8
20260502193920 60 0.0 0.0 0.00 0.00 0.00 10 1019.9
20260502192920 59 0.0 0.0 0.00 0.00 0.00 10 1019.8
20260502191920 59 0.0 0.0 0.00 0.00 0.00 10 1019.9
20260502190920 60 0.0 0.0 0.00 0.00 0.00 10 1019.8
20260502185920 60 0.0 0.0 0.00 0.00 0.00 10 1019.8
20260502184920 61 0.0 0.0 0.00 0.00 0.00 99 1019.8
20260502183920 61 0.0 0.0 0.00 0.00 0.00 93 1019.5
20260502182920 61 0.0 0.0 0.00 0.00 0.00 88 1019.6
20260502181920 62 0.0 0.0 0.00 0.00 0.00 81 1019.5
20260502180920 62 0.0 0.0 0.00 0.00 0.00 79 1019.4
20260502163920 69 0.0 0.0 0.00 0.00 0.00 51 1019.6
20260502162920 73 0.0 0.0 0.00 0.00 0.00 45 1019.0
20260502161920 85 0.0 0.0 0.00 0.00 0.00 40 1017.9
20260502160925 72 0.0 0.0 0.00 0.00 0.00 68 1019.1
20260502151920 72 0.0 0.0 0.00 0.00 0.00 65 1019.7
20260502150920 73 0.0 0.0 0.00 0.00 0.00 58 1019.6
20260502122920 74 0.0 0.0 0.00 0.00 0.00 57 1021.1
20260502121920 72 0.0 0.0 0.00 0.00 0.00 66 1021.4
20260502120920 72 0.0 0.0 0.00 0.00 0.00 58 1021.4
20260502115920 74 0.0 0.0 0.00 0.00 0.00 61 1021.4
20260502114920 75 0.0 0.0 0.00 0.00 0.00 59 1021.3
20260502113920 75 0.0 0.0 0.00 0.00 0.00 62 1021.4
20260502112920 72 0.0 0.0 0.00 0.00 0.00 67 1021.8
20260502111920 69 0.0 0.0 0.00 0.00 0.00 76 1022.4
20260502110926 70 0.0 0.0 0.00 0.00 0.00 73 1022.2
20260502105920 70 0.0 0.0 0.00 0.00 0.00 73 1022.2
20260502104920 70 0.0 0.0 0.00 0.00 0.00 72 1022.1
20260502103920 70 0.0 0.0 0.00 0.00 0.00 73 1022.3
20260502102920 69 0.0 0.0 0.00 0.00 0.00 77 1022.7
20260502101925 67 0.0 0.0 0.00 0.00 0.00 78 1023.0
20260502100920 68 0.0 0.0 0.00 0.00 0.00 76 1023.0
20260502090920 65 0.0 0.0 0.00 0.00 0.00 92 1023.3
20260502070926 63 0.0 0.0 0.00 0.00 0.00 10 1023.6
20260502065920 63 0.0 0.0 0.00 0.00 0.00 10 1023.6
20260502064920 62 0.0 0.0 0.00 0.00 0.00 10 1023.7
20260502063920 62 0.0 0.0 0.00 0.00 0.00 10 1023.7
20260502062925 62 0.0 0.0 0.00 0.00 0.00 10 1023.6
20260502061920 62 0.0 0.0 0.00 0.00 0.00 10 1023.4
20260502060931 61 0.0 0.0 0.00 0.00 0.00 10 1023.4
20260502055920 61 0.0 0.0 0.00 0.00 0.00 10 1023.5
20260502054925 61 0.0 0.0 0.00 0.00 0.00 10 1023.5
20260502053920 60 0.0 0.0 0.00 0.00 0.00 10 1023.5
20260502052920 60 0.0 0.0 0.00 0.00 0.00 10 1023.6
20260502051920 60 0.0 0.0 0.00 0.00 0.00 10 1023.6
20260502050920 60 0.0 0.0 0.00 0.00 0.00 10 1023.6
20260502045920 60 0.0 0.0 0.00 0.00 0.00 10 1023.4
20260502044925 60 0.0 0.0 0.00 0.00 0.00 10 1023.4
20260502043920 60 0.0 0.0 0.00 0.00 0.00 10 1023.4
20260502042920 60 0.0 0.0 0.00 0.00 0.00 10 1023.5
20260502041920 59 0.0 0.0 0.00 0.00 0.00 10 1023.5
20260502040920 59 0.0 0.0 0.00 0.00 0.00 10 1023.3
20260502035920 60 0.0 0.0 0.00 0.00 0.00 10 1023.2
20260502034920 59 0.0 0.0 0.00 0.00 0.00 10 1023.3
20260502033926 59 0.0 0.0 0.00 0.00 0.00 10 1023.4
20260502032920 58 0.0 0.0 0.00 0.00 0.00 10 1023.5
20260502031920 59 0.0 0.0 0.00 0.00 0.00 10 1023.5
20260502030920 59 0.0 0.0 0.00 0.00 0.00 10 1023.4
20260502025920 59 0.0 0.0 0.00 0.00 0.00 10 1023.6
20260502024920 58 0.0 0.0 0.00 0.00 0.00 10 1023.6
20260502023931 58 0.0 0.0 0.00 0.00 0.00 10 1023.7
20260502022920 59 0.0 0.0 0.00 0.00 0.00 10 1023.7
20260502021920 59 0.0 0.0 0.00 0.00 0.00 10 1023.6
20260502020920 60 0.0 0.0 0.00 0.00 0.00 10 1023.7
20260502015931 60 0.0 0.0 0.00 0.00 0.00 10 1023.7
20260502014925 61 0.0 0.0 0.00 0.00 0.00 10 1023.6
20260502013920 61 0.0 0.0 0.00 0.00 0.00 10 1023.8
20260502012937 61 0.0 0.0 0.00 0.00 0.00 10 1023.6
20260502011920 61 0.0 0.0 0.00 0.00 0.00 10 1023.5
20260502010920 61 0.0 0.0 0.00 0.00 0.00 10 1023.7
20260502005920 61 0.0 0.0 0.00 0.00 0.00 10 1023.8
20260502004920 61 0.0 0.0 0.00 0.00 0.00 10 1024.0
20260502003920 61 0.0 0.0 0.00 0.00 0.00 10 1023.9
20260502002920 61 0.0 0.0 0.00 0.00 0.00 10 1024.2
20260502001920 61 0.0 0.0 0.00 0.00 0.00 10 1024.2
20260502000920 62 0.0 0.0 0.00 0.00 0.00 10 1024.4
20260501235920 62 0.0 0.0 0.00 0.00 0.00 10 1024.4
20260501234936 62 0.0 0.0 0.00 0.00 0.00 10 1024.5
20260501233920 61 0.0 0.0 0.00 0.00 0.00 10 1024.6
20260501232920 61 0.0 0.0 0.00 0.00 0.00 10 1024.7
20260501231920 61 0.0 0.0 0.00 0.00 0.00 10 1024.7
20260501230920 60 0.0 0.0 0.00 0.00 0.00 10 1024.8
20260501225926 61 0.0 0.0 0.00 0.00 0.00 10 1024.6
20260501224920 61 0.0 0.0 0.00 0.00 0.00 10 1024.5
20260501223920 61 0.0 0.0 0.00 0.00 0.00 10 1024.4
20260501222920 61 0.0 0.0 0.00 0.00 0.00 10 1024.4
20260501221921 61 0.0 0.0 0.00 0.00 0.00 10 1024.4
20260501220920 61 0.0 0.0 0.00 0.00 0.00 10 1024.3
20260501215926 60 0.0 0.0 0.00 0.00 0.00 10 1024.4
20260501214920 60 0.0 0.0 0.00 0.00 0.00 10 1024.5
20260501213920 60 0.0 0.0 0.00 0.00 0.00 10 1024.6
20260501212920 60 0.0 0.0 0.00 0.00 0.00 10 1024.6
20260501211920 60 0.0 0.0 0.00 0.00 0.00 10 1024.7